Wind_Speed
17 17 18 17 17 17 17 17 18 18 18 18 18 18 18 18 18 18 18 18 19 19 19 20 20 20 21 22 22 22 21 21 21 21 21 21 20 20 20 21 21 21 21 22 22 21 20 20 19 19 18 18 18 15 14 15 17 19 22 26 32 36 39
18 18 19 18 18 18 17 17 18 18 18 18 18 18 18 18 18 18 18 18 18 19 19 19 20 20 21 22 22 23 22 22 22 22 22 22 21 21 21 21 22 22 22 22 23 23 22 22 21 20 20 21 21 19 18 16 15 15 15 17 21 26 31
19 19 19 19 18 18 17 17 17 17 18 18 18 18 18 18 18 18 18 18 18 18 19 19 19 19 20 21 22 22 22 21 22 22 22 22 21 21 21 22 22 22 23 23 24 24 24 24 24 24 23 23 22 22 21 20 20 20 19 17 16 18 22
19 20 19 19 18 18 17 16 17 17 17 18 18 18 17 17 17 17 18 18 18 18 18 18 19 19 19 19 20 21 21 21 21 21 21 21 21 21 21 22 22 23 24 24 25 25 25 26 26 26 25 25 25 25 24 23 24 25 23 20 19 19 20
20 20 20 19 19 18 17 16 16 17 17 17 17 17 17 17 16 17 17 17 17 17 17 17 17 17 17 18 18 19 19 19 19 19 19 19 19 20 21 21 22 23 24 25 25 25 26 26 27 27 27 26 27 27 26 27 27 26 25 23 21 21 21
20 20 20 19 19 18 17 16 15 16 16 16 17 17 17 17 16 16 16 16 16 16 16 16 16 16 16 16 16 16 16 16 16 16 17 16 16 17 18 19 21 22 24 24 25 25 25 26 26 26 26 27 27 27 27 27 27 27 25 24 22 21 21
20 19 20 20 20 18 16 15 15 15 15 15 16 16 16 16 16 16 15 15 15 15 16 16 15 15 15 15 15 14 14 14 14 14 14 14 14 15 16 17 18 20 22 23 24 24 24 24 24 24 25 25 25 25 25 25 26 27 25 23 22 22 22
20 18 19 19 19 18 16 15 14 14 15 15 15 15 15 15 15 15 15 15 15 15 15 15 15 15 15 14 14 13 13 13 13 13 13 13 13 13 14 14 15 17 19 20 21 21 21 22 22 22 22 23 23 23 23 23 24 26 24 23 22 21 22
19 18 18 18 17 18 16 15 15 15 15 16 16 15 15 15 14 14 14 15 15 15 15 15 15 16 15 15 14 13 12 12 12 12 12 12 12 12 13 13 13 14 15 17 18 18 18 18 19 19 19 19 20 20 20 21 22 24 23 22 21 21 21
19 18 17 17 16 16 16 16 15 16 16 16 17 16 16 16 15 14 14 14 15 15 16 16 16 16 16 16 15 14 13 12 11 11 11 11 11 11 12 12 13 13 13 14 15 16 16 15 15 16 16 16 16 17 18 18 19 20 21 21 20 19 19
19 19 18 17 16 15 16 17 16 16 18 17 17 17 17 16 15 15 15 14 14 15 15 16 16 16 16 17 16 15 14 13 12 11 11 11 11 11 11 12 12 12 12 13 13 14 14 14 13 13 13 13 14 15 15 16 16 17 18 19 18 17 16
20 20 20 18 17 16 16 17 17 18 18 18 18 18 17 17 16 15 15 14 15 15 15 16 16 16 16 17 17 16 15 14 13 12 12 12 11 12 12 12 12 12 12 12 13 13 13 13 12 12 12 12 12 14 14 15 15 15 16 17 17 16 15
21 22 22 21 19 18 17 18 18 19 19 19 19 18 18 18 17 16 14 13 14 14 15 15 15 16 16 17 17 17 17 17 16 15 14 13 12 12 12 12 13 13 13 13 13 14 14 14 14 13 12 12 12 13 15 15 16 16 16 17 17 17 16
22 24 25 23 21 19 18 19 20 20 21 21 20 19 19 18 18 17 16 14 14 14 14 15 15 16 16 16 17 17 18 18 18 18 17 15 14 13 13 13 13 14 14 14 14 15 15 15 16 16 16 15 15 15 15 16 17 17 18 18 18 18 18
27 27 27 25 22 20 20 20 21 21 22 21 21 20 21 20 19 19 19 17 17 16 16 15 16 16 16 17 16 16 16 17 18 18 18 17 16 15 15 15 14 15 15 15 16 16 16 16 17 17 17 18 17 17 17 17 18 19 19 20 20 21 20
32 30 29 27 25 23 23 22 22 22 22 22 22 22 22 21 21 22 22 22 21 20 19 17 16 17 18 18 18 17 16 16 17 17 17 17 16 16 15 15 15 16 16 16 17 17 18 18 18 19 19 19 19 19 19 19 19 20 21 22 22 23 23
35 34 32 30 29 29 28 26 26 26 26 26 25 24 23 23 25 25 24 24 24 23 22 21 19 19 19 19 20 19 18 17 17 17 16 16 16 16 16 15 16 16 16 16 17 18 18 19 19 19 20 20 20 20 20 20 20 20 21 22 22 23 24
34 34 32 31 32 33 32 31 30 29 30 30 29 28 28 28 28 28 27 26 26 25 25 24 23 22 21 21 22 22 21 20 19 18 18 17 17 18 18 17 17 17 17 17 17 18 18 18 18 19 19 19 19 20 20 20 20 20 19 20 21 22 22
33 33 33 33 33 33 34 33 31 30 30 30 31 32 33 32 31 31 31 30 28 28 29 27 26 25 25 25 25 25 25 24 23 22 20 19 19 20 20 19 19 19 19 20 20 19 19 19 20 20 20 21 21 21 21 21 21 21 20 20 21 22 23
38 37 36 36 35 35 35 34 33 31 30 29 30 32 33 33 31 30 31 32 32 32 31 29 28 28 28 28 28 28 28 27 26 25 23 23 23 23 23 23 23 22 22 22 22 22 22 22 22 23 23 24 24 24 24 24 23 23 22 22 22 23 24
42 41 40 40 39 39 38 37 37 37 35 34 34 35 35 35 35 33 32 33 33 33 31 31 31 31 31 31 30 29 29 29 29 28 27 26 25 25 26 26 26 25 26 26 26 25 25 25 25 26 26 26 26 26 26 26 26 25 25 25 25 25 25
45 45 44 44 43 43 43 42 42 42 41 41 40 40 40 40 40 39 38 36 35 35 34 33 32 33 34 34 33 31 31 31 31 31 31 30 28 28 28 29 28 28 29 29 29 29 29 29 30 30 31 31 31 31 31 30 30 30 29 29 29 30 30
49 49 49 48 47 47 47 47 46 46 46 45 44 44 44 43 43 43 42 41 40 39 38 37 35 33 32 32 33 33 32 33 33 33 33 33 32 33 33 32 32 32 33 34 34 34 34 34 34 35 36 37 37 37 37 37 36 35 34 34 34 35 35
51 51 51 51 51 51 51 51 50 49 48 48 47 47 46 46 46 45 45 45 44 43 43 42 40 37 36 36 37 37 36 36 36 35 35 35 35 35 36 37 37 37 38 38 39 39 39 39 40 40 40 41 42 43 43 43 42 41 40 39 38 39 39
52 53 53 53 54 54 54 53 53 52 50 49 48 48 48 47 47 47 48 48 48 47 47 46 46 45 45 45 46 45 44 43 42 42 42 41 40 38 38 39 40 41 42 42 42 43 43 43 43 43 43 43 44 45 46 47 46 46 45 44 43 42 43
51 53 53 54 55 56 56 56 55 55 53 52 50 50 50 49 49 49 49 49 49 49 48 48 48 48 48 48 48 48 47 46 47 48 48 48 46 43 41 42 44 45 45 45 45 45 45 45 45 45 45 45 46 47 48 49 49 49 49 48 47 47 47
48 50 51 52 53 53 54 54 55 55 55 54 54 53 53 52 52 52 51 50 50 49 48 48 48 48 49 49 49 49 47 46 46 47 49 49 48 46 45 46 47 48 48 48 47 47 47 47 48 48 48 48 49 49 50 50 51 51 51 51 51 50 51
48 49 50 51 51 51 51 52 52 52 53 54 54 54 53 53 53 53 53 53 52 51 50 49 48 49 50 50 50 50 50 49 48 47 47 48 48 47 48 48 49 49 49 50 50 50 51 51 51 51 51 51 51 51 51 52 52 52 52 53 53 54 54
50 50 50 51 51 51 51 51 51 51 51 52 52 52 52 51 52 53 53 53 52 51 51 51 50 51 51 51 51 51 51 51 50 49 48 48 48 48 49 49 50 50 50 51 51 52 53 54 54 54 54 54 54 54 54 54 54 54 54 55 55 56 57
52 51 51 50 51 51 51 51 51 51 51 51 52 52 52 51 52 52 52 52 51 51 52 54 54 54 54 53 53 53 52 51 51 51 50 50 50 49 49 50 50 50 51 51 52 52 53 54 55 55 56 56 56 56 57 57 57 57 57 57 58 58 59
51 49 49 50 50 50 50 50 51 51 51 51 51 51 52 52 52 51 51 52 51 52 52 53 55 55 55 55 55 54 52 51 50 50 50 50 51 50 50 50 50 50 50 50 51 52 53 53 54 55 55 55 56 57 57 58 58 58 58 59 59 59 60
51 50 50 50 50 50 50 50 51 51 51 51 51 51 52 52 51 51 51 51 52 52 52 53 53 54 53 53 52 52 51 50 50 50 49 49 50 50 50 49 49 49 49 49 50 51 52 52 53 53 54 54 55 55 56 57 57 57 57 57 58 58 59
53 52 51 50 50 49 50 50 51 51 52 52 53 53 53 53 52 52 51 51 51 52 52 53 53 53 53 52 51 50 50 50 49 49 49 49 49 49 49 49 49 49 49 49 49 50 51 51 52 52 53 53 54 54 55 55 55 55 55 55 56 56 57
53 52 51 50 49 49 49 49 49 50 51 52 53 52 53 53 53 53 52 52 52 52 52 52 53 53 53 53 52 51 50 49 49 49 49 49 49 49 49 48 48 49 49 49 50 50 51 51 51 52 52 53 54 54 54 54 54 54 55 55 55 55 56
50 50 49 49 48 48 48 48 47 48 49 50 50 50 50 51 51 52 52 52 52 52 51 52 52 52 52 52 52 51 50 50 50 50 50 50 50 50 49 49 49 49 49 50 51 51 51 51 51 52 52 53 53 53 54 54 54 54 54 55 55 55 56
50 50 49 48 48 47 47 47 46 47 48 47 47 47 48 48 49 49 50 50 51 50 50 49 49 49 50 50 50 50 50 50 50 50 50 50 50 50 50 49 49 50 50 51 51 51 51 51 52 52 52 53 53 53 54 54 54 54 55 55 55 56 57
52 51 50 49 48 47 46 46 46 46 47 47 46 46 46 46 46 47 47 48 48 48 47 46 46 46 46 46 46 46 47 48 48 49 49 50 50 50 50 50 50 51 51 52 52 52 51 52 52 52 53 53 53 54 54 54 55 55 55 56 56 57 57
Wind_Direction
307 306 304 300 295 290 285 282 281 281 280 279 278 278 280 280 281 279 276 275 274 271 270 267 266 265 264 264 264 263 262 262 263 264 265 265 263 262 261 261 260 260 260 260 260 263 264 262 260 258 257 259 260 263 267 262 251 247 247 248 247 246 245
308 307 305 301 295 291 286 282 279 278 278 277 277 277 278 279 280 280 278 274 273 271 269 267 265 263 262 262 262 262 261 261 261 261 262 262 261 260 259 259 259 258 258 259 259 260 258 256 256 258 261 262 262 266 270 265 256 253 254 253 252 250 250
305 306 304 299 293 289 284 282 280 278 277 276 276 276 276 276 276 277 277 275 272 270 268 266 265 262 260 260 261 261 260 259 260 261 262 261 260 259 258 258 258 257 257 258 259 258 257 256 256 259 263 264 264 266 268 265 262 262 263 264 261 256 253
302 302 299 294 289 286 282 280 280 280 280 279 279 280 279 279 278 277 277 276 274 271 268 266 265 264 261 260 260 260 261 260 259 260 262 263 263 261 259 258 257 256 257 257 258 259 260 259 259 260 261 262 264 266 266 266 265 264 264 263 260 257 256
300 296 293 288 284 282 279 279 279 280 283 283 283 284 283 283 281 279 277 276 275 272 270 268 266 265 263 261 261 260 261 262 261 261 262 264 264 264 262 260 258 256 256 257 257 258 259 259 260 261 262 261 263 265 265 265 264 264 263 261 258 257 258
295 290 285 282 279 277 275 275 278 280 283 285 285 286 285 285 283 282 279 277 277 275 274 272 270 268 267 265 263 263 263 264 264 264 265 265 264 264 263 261 259 258 257 257 258 258 258 259 260 261 263 263 264 264 264 264 264 263 262 261 260 258 258
287 281 276 275 275 275 271 271 275 278 282 283 285 286 285 286 286 285 283 281 280 280 278 277 275 273 271 269 268 267 266 267 268 268 267 267 265 264 264 262 260 259 259 259 260 260 260 260 261 261 262 264 264 265 265 265 266 265 263 261 259 255 253
277 271 267 269 271 271 270 271 273 275 278 281 281 283 284 285 288 288 289 288 285 284 282 281 281 278 276 273 270 270 269 269 270 271 270 269 267 265 264 264 262 260 261 262 263 263 263 262 262 262 262 263 264 265 265 264 265 267 267 264 259 254 250
267 262 262 264 266 269 269 270 275 276 278 279 279 280 281 281 284 287 290 291 290 288 285 283 281 280 278 276 272 270 268 268 268 269 270 269 267 265 263 262 262 260 260 263 265 266 266 266 265 264 264 263 262 262 262 261 261 264 266 265 262 256 251
260 259 259 262 262 267 270 269 275 280 280 281 280 280 279 278 278 280 283 287 288 288 287 284 281 278 277 275 273 270 267 266 265 265 265 265 264 263 261 261 261 259 259 260 263 266 267 267 266 265 265 263 262 261 260 259 259 260 263 263 262 258 254
257 258 258 261 260 263 269 270 273 278 281 283 282 281 280 278 277 276 277 280 281 283 283 281 279 276 274 272 271 269 266 264 261 259 258 258 257 255 255 255 256 257 257 256 259 263 267 268 267 265 265 264 263 261 260 259 257 258 260 261 261 259 254
258 259 257 260 261 260 264 267 270 275 278 280 281 282 282 280 279 277 276 277 278 279 279 279 277 274 271 269 267 265 264 261 259 255 253 252 252 251 251 250 251 251 253 253 254 257 261 264 265 264 263 263 263 264 264 263 261 260 259 259 260 259 256
263 261 259 258 260 260 261 264 266 269 273 277 279 281 282 283 283 281 279 278 275 275 276 278 278 276 272 269 266 263 261 259 257 254 251 248 247 247 248 249 250 250 250 251 251 252 254 257 260 260 259 258 258 262 266 267 267 266 265 263 261 261 259
273 270 265 262 260 260 263 264 265 267 270 272 274 277 280 282 283 282 280 276 272 270 272 274 275 276 275 271 268 266 263 261 259 258 256 253 250 248 246 246 247 249 250 250 249 249 250 252 255 258 259 258 257 257 260 264 266 267 268 269 268 266 264
278 276 272 270 269 267 267 267 266 267 268 269 272 275 276 278 279 280 278 273 269 268 268 268 271 273 274 273 270 268 266 265 264 263 262 260 258 256 253 251 249 248 250 251 251 251 251 250 252 254 257 260 261 261 261 262 264 266 266 268 270 271 270
275 274 271 273 274 272 270 266 264 263 262 262 265 268 270 273 274 274 274 272 270 270 268 264 264 267 269 272 271 269 267 267 267 267 266 265 263 261 259 258 257 255 254 254 254 254 254 254 254 254 255 257 259 262 264 265 266 269 270 270 270 272 273
271 270 270 271 273 273 269 265 263 263 261 258 260 261 262 267 269 268 269 269 270 270 270 267 265 263 264 267 270 270 269 268 267 267 266 266 266 265 263 261 261 261 259 258 258 258 258 258 258 258 258 258 259 260 262 265 267 269 273 275 275 275 275
266 267 271 273 272 271 269 265 265 265 264 261 260 258 258 262 266 266 266 268 268 268 268 268 268 266 266 266 267 267 267 265 264 264 264 264 265 266 266 264 264 264 264 262 261 260 260 260 260 260 261 262 262 262 262 262 263 265 268 272 276 277 277
265 266 270 273 272 270 267 266 267 268 268 265 262 260 261 262 263 263 263 264 266 267 266 264 265 265 265 265 264 263 262 261 259 259 259 259 259 260 262 263 263 263 264 265 264 263 263 263 265 266 268 269 270 270 269 268 267 266 266 267 270 273 275
270 270 271 271 272 270 267 265 265 266 267 266 264 265 267 268 268 268 266 264 265 266 264 261 260 261 261 261 261 260 260 259 259 257 257 257 258 259 259 260 260 261 262 262 263 264 265 267 269 271 273 274 274 275 275 274 273 272 271 271 271 271 273
273 273 273 272 272 272 269 267 267 267 268 268 269 270 271 272 273 274 274 271 270 271 270 264 260 260 260 258 257 258 261 261 260 259 258 258 259 261 262 262 262 263 264 264 264 265 266 268 270 273 274 274 274 275 275 275 274 273 273 274 274 275 275
272 273 274 274 273 273 273 271 270 270 270 271 271 271 272 272 273 273 274 274 274 276 276 272 264 260 260 260 257 255 257 259 260 262 263 262 261 261 262 263 264 265 266 267 267 267 268 269 270 273 275 275 274 274 274 274 273 273 272 273 274 275 277
270 271 272 273 274 274 274 274 274 274 273 273 273 273 272 272 273 273 273 273 273 274 274 273 267 259 255 259 260 256 253 254 258 263 265 265 263 261 261 263 265 266 266 267 268 269 270 270 270 271 273 275 275 275 275 275 274 273 273 272 273 274 275
266 268 269 271 272 272 273 274 274 274 274 274 275 274 274 273 274 274 274 273 273 272 270 270 269 263 259 261 265 265 261 259 260 262 264 266 266 265 265 265 266 266 267 267 268 269 270 270 271 271 271 272 274 275 275 276 276 276 276 275 275 275 275
263 264 265 267 268 269 270 271 272 272 272 272 272 272 272 271 271 271 272 272 271 271 269 268 268 267 265 265 267 269 269 267 266 265 266 267 267 267 267 266 267 267 268 268 268 269 269 270 270 270 270 270 271 272 273 274 275 276 277 278 278 278 277
264 264 264 265 265 266 268 269 269 270 270 270 269 269 269 269 268 268 269 269 269 270 270 269 269 269 269 269 270 270 270 269 267 267 268 267 267 267 266 265 266 267 268 267 267 267 267 268 269 270 270 270 271 271 272 273 274 276 277 278 279 279 279
268 268 267 266 266 266 267 267 268 268 268 268 268 268 268 269 269 268 268 268 268 269 270 271 272 271 270 271 271 272 272 270 268 267 267 267 267 267 266 265 266 266 266 266 266 266 267 267 267 268 269 270 271 272 273 274 275 276 277 278 279 279 279
271 270 269 268 268 267 267 268 268 268 269 269 269 269 269 270 270 271 271 271 271 271 271 272 272 271 271 272 273 274 275 275 273 271 269 269 269 269 268 268 267 267 266 266 265 266 266 267 267 268 269 270 271 273 274 274 275 276 276 277 278 278 278
270 270 269 268 267 267 267 267 267 268 268 269 270 270 270 270 270 271 273 274 274 273 271 270 270 271 272 274 275 275 276 277 278 277 275 273 272 271 270 270 269 269 268 267 266 266 266 266 267 268 269 270 271 272 272 273 274 274 275 276 276 277 277
268 266 265 265 265 266 266 266 266 267 267 268 269 270 270 270 270 272 273 273 273 271 270 269 269 269 271 273 275 276 277 277 277 277 277 276 275 274 272 271 271 270 270 269 268 268 267 267 267 268 268 269 270 271 271 271 272 273 273 274 274 275 276
267 264 263 263 263 263 264 264 265 266 266 267 267 268 269 269 270 271 272 272 272 271 271 270 270 270 271 272 274 275 276 276 275 275 275 275 275 274 274 274 273 272 271 270 270 269 269 269 268 268 269 269 269 270 270 270 271 271 271 272 272 273 274
267 266 265 263 262 262 263 263 264 265 265 265 266 266 267 267 268 269 270 270 271 271 271 271 271 272 272 273 273 274 274 274 274 273 273 273 273 273 273 273 273 272 271 271 270 269 269 269 269 269 269 269 269 269 269 270 270 270 270 271 271 271 271
268 267 265 264 263 263 263 263 263 264 265 265 265 266 266 267 267 268 268 269 269 270 270 270 271 271 272 272 273 273 273 273 273 273 273 272 272 271 271 271 271 271 271 270 270 269 269 269 269 270 270 270 270 270 270 270 271 270 270 270 270 270 270
268 266 265 265 264 263 263 262 263 263 264 265 266 267 268 268 269 269 269 269 269 269 269 270 270 270 270 271 271 272 273 273 273 273 273 273 273 272 272 272 272 271 271 270 270 270 270 270 270 270 270 270 271 271 271 271 271 271 271 271 270 270 270
267 267 266 266 265 265 264 264 264 264 264 265 266 267 268 269 269 270 270 270 270 269 269 269 269 269 269 270 270 271 271 271 271 272 272 272 272 273 273 272 272 271 271 271 270 271 271 271 271 271 271 272 272 272 272 272 272 272 271 271 271 270 270
266 267 266 266 266 266 266 266 266 267 267 267 267 267 267 268 268 268 269 269 269 269 269 269 269 269 270 270 270 269 269 270 270 270 270 271 271 272 272 272 272 271 271 271 272 272 272 272 272 272 272 272 272 272 272 272 272 272 272 271 271 270 270
266 266 265 265 265 265 266 267 267 268 268 269 269 268 267 267 267 267 267 268 268 268 269 270 270 270 271 271 270 270 269 269 269 269 270 270 271 271 272 272 272 272 272 273 273 273 273 273 273 273 273 273 273 273 273 272 272 272 272 271 271 271 270
Height
5761 5761 5761 5760 5760 5760 5760 5759 5759 5759 5759 5759 5759 5759 5758 5759 5759 5760 5760 5761 5762 5763 5763 5764 5765 5766 5766 5766 5766 5766 5767 5768 5768 5768 5768 5769 5770 5771 5772 5772 5773 5774 5774 5774 5774 5775 5776 5776 5777 5777 5777 5778 5779 5779 5780 5780 5780 5781 5782 5782 5783 5785 5786
5759 5759 5759 5758 5758 5758 5757 5757 5757 5758 5758 5757 5757 5757 5757 5757 5757 5758 5758 5759 5759 5760 5761 5762 5763 5763 5764 5764 5764 5764 5765 5765 5766 5766 5766 5766 5767 5767 5768 5769 5770 5771 5771 5771 5772 5772 5772 5773 5774 5774 5775 5775 5776 5777 5777 5778 5778 5778 5779 5779 5780 5781 5782
5757 5757 5757 5756 5756 5756 5755 5755 5755 5755 5756 5756 5755 5755 5755 5755 5756 5756 5756 5756 5757 5758 5758 5759 5760 5761 5761 5762 5762 5762 5762 5763 5763 5764 5764 5764 5764 5764 5765 5766 5766 5767 5768 5769 5769 5769 5769 5770 5771 5771 5772 5772 5773 5774 5774 5775 5775 5775 5776 5777 5778 5778 5778
5755 5754 5754 5754 5754 5754 5753 5753 5753 5753 5753 5754 5753 5753 5753 5754 5754 5754 5754 5754 5755 5755 5756 5757 5757 5758 5759 5759 5760 5760 5760 5761 5761 5761 5761 5761 5762 5762 5762 5763 5763 5764 5765 5765 5766 5767 5767 5767 5768 5769 5770 5770 5770 5770 5771 5772 5771 5772 5773 5774 5774 5775 5775
5752 5752 5752 5752 5752 5752 5751 5751 5751 5752 5752 5752 5752 5752 5752 5752 5752 5752 5752 5752 5753 5753 5754 5754 5755 5755 5756 5757 5757 5757 5758 5758 5758 5759 5759 5759 5759 5760 5760 5761 5761 5761 5762 5762 5763 5764 5764 5764 5765 5765 5766 5767 5767 5768 5769 5769 5768 5768 5769 5770 5770 5771 5772
5750 5749 5749 5749 5749 5749 5749 5749 5750 5750 5750 5750 5750 5750 5750 5750 5750 5750 5750 5751 5751 5751 5751 5752 5752 5753 5753 5754 5755 5755 5755 5756 5756 5756 5757 5757 5757 5757 5758 5758 5759 5759 5759 5760 5760 5760 5761 5761 5762 5762 5763 5763 5764 5764 5765 5765 5765 5765 5766 5766 5767 5769 5770
5747 5747 5747 5747 5747 5747 5747 5748 5748 5748 5749 5749 5749 5748 5748 5748 5748 5748 5749 5749 5749 5749 5749 5749 5750 5750 5751 5751 5752 5752 5753 5753 5754 5754 5754 5754 5755 5755 5755 5756 5756 5757 5757 5758 5758 5758 5758 5758 5759 5759 5760 5760 5760 5761 5761 5761 5761 5761 5763 5764 5765 5765 5766
5744 5745 5745 5745 5745 5745 5745 5746 5746 5747 5747 5747 5747 5747 5747 5747 5747 5747 5747 5747 5747 5747 5747 5747 5748 5748 5748 5749 5749 5749 5750 5750 5751 5751 5752 5752 5752 5753 5753 5753 5754 5754 5754 5755 5755 5756 5756 5756 5756 5757 5757 5757 5757 5758 5758 5758 5758 5758 5759 5761 5761 5762 5763
5742 5742 5743 5743 5743 5743 5743 5744 5744 5745 5745 5746 5746 5746 5745 5745 5745 5745 5745 5745 5745 5745 5745 5745 5745 5746 5746 5746 5746 5747 5747 5747 5748 5748 5749 5749 5750 5750 5750 5751 5751 5751 5752 5752 5752 5753 5753 5753 5754 5754 5754 5755 5755 5755 5755 5756 5756 5755 5756 5757 5758 5759 5760
5739 5740 5741 5741 5741 5741 5741 5741 5742 5742 5743 5744 5744 5744 5744 5744 5743 5743 5743 5743 5743 5743 5743 5743 5743 5743 5743 5743 5744 5744 5744 5745 5745 5745 5746 5746 5747 5747 5748 5748 5748 5749 5749 5749 5749 5750 5750 5751 5751 5751 5752 5752 5752 5752 5753 5753 5753 5753 5754 5754 5755 5756 5757
5737 5738 5739 5739 5740 5740 5739 5739 5740 5740 5741 5742 5742 5743 5742 5742 5742 5741 5741 5740 5740 5741 5741 5741 5741 5741 5741 5741 5741 5741 5742 5742 5742 5743 5743 5743 5744 5744 5745 5745 5746 5746 5746 5747 5747 5747 5747 5748 5748 5749 5749 5749 5750 5750 5750 5751 5751 5752 5752 5752 5752 5753 5754
5734 5736 5737 5738 5737 5738 5737 5737 5737 5738 5738 5739 5739 5740 5740 5740 5740 5739 5739 5738 5738 5738 5738 5738 5739 5739 5739 5739 5739 5739 5739 5739 5740 5740 5740 5741 5741 5742 5742 5743 5743 5744 5744 5744 5745 5745 5745 5745 5746 5746 5747 5747 5747 5748 5748 5749 5749 5750 5750 5750 5750 5751 5752
5732 5733 5734 5735 5735 5735 5735 5735 5736 5736 5736 5736 5736 5737 5738 5738 5738 5738 5737 5737 5736 5736 5736 5736 5736 5736 5737 5737 5737 5737 5737 5737 5738 5738 5738 5739 5739 5740 5740 5740 5741 5741 5742 5742 5742 5743 5743 5743 5743 5744 5744 5745 5745 5745 5746 5746 5747 5747 5748 5748 5748 5749 5749
5729 5731 5732 5733 5733 5733 5733 5734 5734 5734 5734 5735 5734 5734 5735 5735 5736 5736 5735 5735 5734 5734 5734 5734 5734 5734 5734 5734 5734 5734 5735 5735 5735 5736 5736 5736 5737 5738 5738 5739 5739 5739 5740 5740 5740 5741 5741 5741 5741 5742 5742 5742 5743 5743 5743 5744 5744 5744 5745 5745 5746 5746 5747
5727 5728 5730 5730 5731 5731 5731 5731 5732 5732 5733 5733 5733 5733 5732 5732 5733 5733 5733 5732 5732 5731 5731 5731 5731 5731 5732 5732 5732 5732 5732 5732 5733 5733 5734 5734 5735 5735 5735 5736 5737 5737 5737 5738 5738 5738 5739 5739 5739 5740 5740 5740 5740 5741 5741 5741 5741 5741 5742 5742 5742 5743 5743
5724 5725 5727 5727 5728 5728 5728 5729 5729 5730 5730 5731 5731 5731 5730 5730 5730 5730 5730 5730 5729 5729 5729 5729 5729 5729 5729 5730 5730 5730 5730 5730 5730 5730 5731 5731 5732 5732 5733 5733 5733 5734 5734 5735 5735 5736 5736 5737 5737 5737 5737 5738 5738 5738 5738 5739 5739 5738 5738 5738 5739 5739 5740
5720 5721 5723 5723 5723 5724 5724 5725 5725 5726 5727 5727 5728 5729 5728 5728 5727 5727 5727 5727 5727 5727 5727 5727 5727 5727 5727 5728 5728 5728 5728 5728 5728 5728 5729 5729 5729 5729 5730 5730 5730 5731 5731 5732 5732 5732 5733 5733 5734 5734 5735 5735 5735 5735 5735 5735 5736 5736 5735 5735 5735 5735 5736
5716 5716 5718 5719 5719 5719 5720 5721 5721 5722 5723 5724 5725 5725 5725 5725 5725 5724 5725 5724 5724 5724 5724 5725 5725 5725 5726 5726 5726 5726 5726 5726 5726 5726 5726 5727 5727 5727 5727 5727 5728 5728 5728 5728 5729 5729 5730 5730 5731 5731 5732 5732 5732 5732 5732 5732 5733 5733 5733 5732 5732 5731 5732
5712 5712 5713 5714 5715 5716 5716 5717 5718 5718 5719 5720 5720 5720 5720 5721 5721 5722 5722 5721 5721 5721 5721 5722 5723 5723 5723 5723 5724 5724 5724 5723 5723 5723 5724 5725 5725 5725 5724 5725 5725 5725 5725 5725 5726 5726 5727 5727 5728 5728 5729 5729 5729 5729 5729 5730 5730 5730 5730 5730 5729 5728 5728
5707 5708 5709 5710 5711 5711 5712 5713 5714 5714 5715 5716 5716 5715 5715 5716 5717 5718 5718 5718 5718 5718 5718 5719 5720 5720 5719 5719 5720 5720 5720 5720 5720 5720 5720 5721 5722 5722 5722 5722 5722 5722 5722 5722 5723 5723 5723 5724 5724 5725 5725 5725 5726 5726 5726 5726 5726 5726 5726 5726 5726 5726 5725
5702 5703 5703 5705 5706 5706 5708 5709 5709 5710 5711 5711 5711 5711 5711 5712 5712 5713 5714 5714 5714 5714 5715 5715 5716 5716 5716 5716 5716 5717 5717 5717 5717 5717 5717 5717 5718 5718 5719 5719 5719 5719 5719 5719 5719 5719 5720 5720 5720 5721 5721 5721 5722 5722 5722 5722 5722 5722 5722 5722 5722 5722 5722
5697 5697 5698 5699 5700 5701 5702 5703 5704 5705 5706 5706 5707 5706 5707 5708 5708 5709 5709 5710 5710 5710 5711 5711 5712 5712 5712 5712 5713 5713 5714 5714 5714 5713 5713 5714 5715 5715 5715 5715 5715 5715 5715 5715 5715 5715 5716 5716 5716 5716 5717 5717 5717 5717 5718 5718 5718 5718 5718 5718 5718 5718 5718
5692 5692 5693 5694 5694 5695 5696 5697 5698 5698 5699 5700 5701 5701 5702 5703 5703 5704 5704 5705 5705 5705 5706 5707 5707 5707 5707 5707 5708 5709 5710 5710 5710 5710 5710 5710 5710 5711 5711 5711 5711 5711 5711 5710 5710 5711 5711 5711 5711 5711 5711 5712 5712 5712 5712 5712 5712 5713 5713 5713 5713 5713 5713
5687 5688 5688 5688 5689 5689 5690 5691 5691 5692 5693 5693 5694 5695 5696 5697 5697 5698 5699 5699 5700 5701 5701 5702 5702 5702 5702 5702 5703 5704 5705 5706 5706 5706 5706 5706 5706 5706 5706 5706 5706 5706 5705 5705 5705 5706 5706 5706 5705 5705 5706 5706 5706 5706 5706 5706 5706 5706 5707 5707 5707 5707 5707
5682 5683 5683 5683 5684 5684 5684 5685 5685 5686 5686 5687 5688 5688 5689 5690 5691 5692 5693 5694 5694 5695 5695 5696 5696 5696 5696 5697 5697 5698 5698 5700 5700 5701 5701 5701 5701 5701 5701 5701 5701 5701 5700 5700 5700 5700 5700 5700 5699 5699 5699 5699 5699 5699 5699 5699 5699 5699 5700 5700 5701 5700 5700
5677 5677 5678 5677 5678 5678 5678 5678 5679 5679 5680 5680 5681 5682 5682 5683 5684 5685 5687 5688 5688 5688 5689 5689 5689 5689 5689 5689 5690 5691 5692 5693 5694 5694 5694 5694 5694 5695 5695 5695 5695 5695 5694 5694 5694 5694 5694 5694 5693 5693 5693 5692 5692 5692 5692 5692 5692 5692 5692 5693 5693 5693 5691
5671 5671 5671 5671 5671 5672 5672 5672 5672 5672 5673 5673 5674 5674 5675 5676 5677 5678 5679 5680 5681 5682 5682 5682 5682 5682 5682 5682 5683 5684 5684 5685 5686 5687 5687 5687 5687 5688 5689 5688 5688 5688 5688 5688 5688 5688 5688 5687 5687 5686 5686 5686 5685 5685 5685 5684 5684 5684 5685 5685 5685 5684 5683
5665 5665 5665 5665 5665 5665 5665 5666 5666 5666 5666 5666 5667 5667 5668 5669 5669 5670 5671 5672 5673 5674 5674 5675 5675 5674 5675 5676 5677 5677 5677 5677 5678 5679 5679 5679 5680 5680 5681 5681 5681 5681 5681 5681 5681 5681 5681 5680 5680 5680 5679 5679 5678 5678 5677 5677 5676 5677 5677 5676 5676 5676 5675
5659 5659 5659 5659 5659 5659 5659 5659 5659 5660 5660 5660 5660 5660 5661 5662 5662 5663 5664 5665 5665 5666 5666 5666 5666 5667 5667 5669 5670 5670 5669 5669 5669 5669 5670 5671 5671 5672 5673 5673 5673 5673 5673 5673 5673 5673 5673 5673 5672 5672 5672 5672 5671 5671 5670 5669 5669 5669 5669 5668 5668 5667 5667
5652 5652 5652 5652 5652 5652 5652 5653 5653 5653 5654 5654 5654 5654 5655 5655 5656 5657 5658 5658 5659 5659 5659 5658 5658 5659 5660 5661 5662 5662 5662 5662 5662 5662 5662 5662 5663 5663 5664 5664 5665 5665 5665 5665 5665 5664 5664 5664 5664 5663 5663 5663 5663 5662 5661 5661 5661 5661 5660 5660 5659 5659 5658
5644 5645 5645 5645 5645 5645 5646 5646 5646 5646 5647 5647 5648 5648 5648 5649 5650 5651 5652 5651 5652 5652 5652 5652 5652 5652 5653 5654 5654 5654 5655 5655 5655 5655 5655 5655 5655 5655 5655 5656 5656 5656 5656 5656 5656 5656 5655 5655 5654 5654 5654 5654 5654 5653 5652 5652 5652 5652 5651 5651 5651 5650 5649
5637 5637 5637 5638 5638 5638 5639 5639 5639 5639 5640 5640 5641 5641 5642 5643 5644 5645 5645 5645 5645 5645 5644 5645 5645 5645 5646 5646 5646 5646 5647 5647 5647 5647 5648 5648 5647 5647 5648 5648 5648 5648 5648 5648 5648 5647 5646 5646 5645 5645 5645 5645 5645 5644 5643 5643 5643 5643 5642 5642 5642 5641 5640
5629 5629 5630 5630 5631 5631 5632 5632 5632 5632 5632 5632 5633 5634 5636 5637 5637 5638 5638 5638 5638 5637 5637 5637 5637 5638 5638 5639 5639 5639 5639 5639 5639 5640 5640 5640 5640 5640 5641 5641 5641 5640 5640 5640 5639 5638 5638 5638 5638 5637 5637 5636 5636 5635 5635 5635 5634 5634 5634 5633 5633 5632 5631
5621 5621 5622 5622 5623 5624 5624 5625 5625 5625 5625 5625 5626 5628 5629 5630 5630 5630 5631 5631 5631 5631 5630 5630 5630 5630 5631 5631 5632 5632 5632 5632 5632 5632 5632 5632 5631 5632 5633 5633 5633 5633 5632 5631 5630 5630 5630 5631 5630 5630 5629 5628 5628 5627 5627 5626 5626 5625 5625 5625 5624 5623 5623
5613 5614 5614 5615 5616 5616 5616 5617 5618 5618 5618 5619 5621 5622 5623 5623 5623 5623 5623 5623 5623 5623 5623 5623 5623 5623 5623 5624 5625 5625 5625 5625 5625 5625 5625 5624 5624 5624 5625 5626 5625 5624 5623 5622 5622 5622 5623 5623 5622 5622 5621 5621 5620 5619 5618 5618 5617 5617 5616 5616 5615 5615 5614
5605 5606 5607 5607 5608 5608 5609 5610 5611 5611 5611 5612 5614 5616 5616 5616 5616 5616 5616 5615 5615 5615 5616 5616 5616 5616 5616 5617 5617 5617 5617 5617 5618 5618 5617 5617 5617 5616 5617 5618 5617 5616 5615 5615 5615 5615 5616 5615 5614 5614 5613 5612 5612 5611 5610 5609 5609 5608 5607 5607 5606 5605 5604
5597 5598 5599 5600 5600 5601 5602 5603 5604 5604 5604 5605 5607 5607 5608 5609 5609 5609 5609 5608 5608 5608 5609 5609 5609 5609 5610 5610 5610 5610 5610 5610 5610 5610 5610 5610 5610 5609 5609 5610 5609 5609 5608 5608 5607 5608 5608 5607 5606 5606 5605 5604 5603 5602 5601 5601 5600 5599 5599 5598 5597 5596 5595